Time,TemperatureF,DewpointF,PressureIn,WindDirection,WindDirectionDegrees,WindSpeedMPH,WindSpeedGustMPH,Humidity,HourlyPrecipIn,Conditions,Clouds,dailyrainin,SoftwareType,DateUTC
2013-12-08 00:01:00,45.5,39.4,30.46,ESE,113,1.0,2.0,79,0.00,,---,0.00,VWS V14.01,2013-12-08 05:01:00,
2013-12-08 00:02:00,45.5,39.4,30.46,NE,44,0.0,2.0,79,0.00,,---,0.00,VWS V14.01,2013-12-08 05:02:00,
2013-12-08 00:03:00,45.5,39.4,30.46,NNE,32,0.0,2.0,79,0.00,,---,0.00,VWS V14.01,2013-12-08 05:03:00,
2013-12-08 00:05:00,45.5,39.4,30.46,ESE,121,1.0,3.0,79,0.00,,---,0.00,VWS V14.01,2013-12-08 05:05:00,
2013-12-08 00:10:00,45.5,39.4,30.45,ESE,120,4.0,6.0,79,0.00,,---,0.00,VWS V14.01,2013-12-08 05:10:00,
2013-12-08 00:15:00,45.4,39.6,30.46,ESE,116,0.0,6.0,80,0.00,,---,0.00,VWS V14.01,2013-12-08 05:15:00,
2013-12-08 00:20:00,45.4,39.6,30.45,ENE,76,0.0,5.0,80,0.00,,---,0.00,VWS V14.01,2013-12-08 05:20:00,
2013-12-08 00:25:00,45.3,38.9,30.45,SE,125,0.0,12.0,78,0.00,,---,0.00,VWS V14.01,2013-12-08 05:25:00,
2013-12-08 00:30:00,45.2,38.8,30.45,SSE,153,7.0,12.0,78,0.00,,---,0.00,VWS V14.01,2013-12-08 05:30:00,
2013-12-08 00:35:00,45.1,38.3,30.45,South,174,2.0,9.0,77,0.00,,---,0.00,VWS V14.01,2013-12-08 05:35:00,
2013-12-08 00:40:00,45.1,38.3,30.44,East,93,3.0,9.0,77,0.00,,---,0.00,VWS V14.01,2013-12-08 05:40:00,
2013-12-08 00:45:00,45.0,38.2,30.43,ENE,71,0.0,9.0,77,0.00,,---,0.00,VWS V14.01,2013-12-08 05:45:00,
2013-12-08 00:50:00,44.9,38.1,30.44,ESE,108,1.0,7.0,77,0.00,,---,0.00,VWS V14.01,2013-12-08 05:50:00,
2013-12-08 00:55:00,44.9,38.1,30.44,East,101,0.0,7.0,77,0.00,,---,0.00,VWS V14.01,2013-12-08 05:55:00,
2013-12-08 01:00:00,44.9,38.5,30.44,East,94,1.0,1.0,78,0.00,,---,0.00,VWS V14.01,2013-12-08 06:00:00,
2013-12-08 01:05:00,44.8,38.4,30.43,NNE,31,1.0,9.0,78,0.00,,---,0.00,VWS V14.01,2013-12-08 06:05:00,
2013-12-08 01:10:00,44.8,38.4,30.43,East,86,0.0,9.0,78,0.00,,---,0.00,VWS V14.01,2013-12-08 06:10:00,
2013-12-08 01:15:00,44.7,37.9,30.44,ESE,104,2.0,3.0,77,0.00,,---,0.00,VWS V14.01,2013-12-08 06:15:00,
2013-12-08 01:20:00,44.7,37.9,30.44,ESE,117,0.0,6.0,77,0.00,,---,0.00,VWS V14.01,2013-12-08 06:20:00,
2013-12-08 01:25:00,44.7,38.3,30.44,East,80,1.0,6.0,78,0.00,,---,0.00,VWS V14.01,2013-12-08 06:25:00,
2013-12-08 01:30:00,44.6,38.2,30.43,SE,138,0.0,0.0,78,0.00,,---,0.00,VWS V14.01,2013-12-08 06:30:00,
2013-12-08 01:36:00,44.6,38.2,30.43,SE,130,4.0,5.0,78,0.00,,---,0.00,VWS V14.01,2013-12-08 06:36:00,
2013-12-08 01:41:00,44.5,37.8,30.43,ENE,61,1.0,5.0,77,0.00,,---,0.00,VWS V14.01,2013-12-08 06:41:00,
2013-12-08 01:46:00,44.5,37.8,30.44,East,95,1.0,4.0,77,0.00,,---,0.00,VWS V14.01,2013-12-08 06:46:00,
2013-12-08 01:51:00,44.4,37.7,30.44,East,88,1.0,4.0,77,0.00,,---,0.00,VWS V14.01,2013-12-08 06:51:00,
2013-12-08 01:56:00,44.4,37.7,30.43,NNE,14,1.0,6.0,77,0.00,,---,0.00,VWS V14.01,2013-12-08 06:56:00,
2013-12-08 02:01:00,44.3,37.2,30.42,East,81,3.0,7.0,76,0.00,,---,0.00,VWS V14.01,2013-12-08 07:01:00,
2013-12-08 02:06:00,44.2,37.1,30.43,ESE,115,0.0,7.0,76,0.00,,---,0.00,VWS V14.01,2013-12-08 07:06:00,
2013-12-08 02:11:00,44.2,37.5,30.44,NNE,17,2.0,8.0,77,0.00,,---,0.00,VWS V14.01,2013-12-08 07:11:00,
2013-12-08 02:16:00,44.2,37.5,30.43,ESE,115,0.0,5.0,77,0.00,,---,0.00,VWS V14.01,2013-12-08 07:16:00,
2013-12-08 02:21:00,44.1,37.4,30.42,SSE,159,4.0,7.0,77,0.00,,---,0.00,VWS V14.01,2013-12-08 07:21:00,
2013-12-08 02:26:00,44.0,36.9,30.43,SE,141,1.0,7.0,76,0.00,,---,0.00,VWS V14.01,2013-12-08 07:26:00,
2013-12-08 02:31:00,43.9,36.8,30.43,ESE,103,0.0,1.0,76,0.00,,---,0.00,VWS V14.01,2013-12-08 07:31:00,
2013-12-08 02:36:00,43.9,36.8,30.43,SSE,168,1.0,6.0,76,0.00,,---,0.00,VWS V14.01,2013-12-08 07:36:00,
2013-12-08 02:41:00,43.8,36.7,30.43,NE,56,4.0,6.0,76,0.00,,---,0.00,VWS V14.01,2013-12-08 07:41:00,
2013-12-08 02:46:00,43.8,36.7,30.43,NNE,24,2.0,4.0,76,0.00,,---,0.00,VWS V14.01,2013-12-08 07:46:00,
2013-12-08 02:51:00,43.7,37.0,30.42,NNE,15,0.0,4.0,77,0.00,,---,0.00,VWS V14.01,2013-12-08 07:51:00,
2013-12-08 02:56:00,43.7,37.0,30.42,ESE,108,2.0,10.0,77,0.00,,---,0.00,VWS V14.01,2013-12-08 07:56:00,
2013-12-08 03:01:00,43.6,36.9,30.42,East,92,2.0,3.0,77,0.00,,---,0.00,VWS V14.01,2013-12-08 08:01:00,
2013-12-08 03:07:00,43.6,36.9,30.43,NE,39,4.0,7.0,77,0.00,,---,0.00,VWS V14.01,2013-12-08 08:07:00,
2013-12-08 03:12:00,43.5,36.8,30.42,NE,55,0.0,7.0,77,0.00,,---,0.00,VWS V14.01,2013-12-08 08:12:00,
2013-12-08 03:17:00,43.5,36.8,30.42,ESE,105,3.0,3.0,77,0.00,,---,0.00,VWS V14.01,2013-12-08 08:17:00,
2013-12-08 03:22:00,43.4,36.7,30.42,North,5,1.0,7.0,77,0.00,,---,0.00,VWS V14.01,2013-12-08 08:22:00,
2013-12-08 03:27:00,43.4,36.7,30.42,SE,131,2.0,7.0,77,0.00,,---,0.00,VWS V14.01,2013-12-08 08:27:00,
2013-12-08 03:32:00,43.3,36.3,30.42,SE,124,2.0,7.0,76,0.00,,---,0.00,VWS V14.01,2013-12-08 08:32:00,
2013-12-08 03:37:00,43.2,36.2,30.42,NNE,32,0.0,7.0,76,0.00,,---,0.00,VWS V14.01,2013-12-08 08:37:00,
2013-12-08 03:42:00,43.2,36.2,30.42,East,100,2.0,7.0,76,0.00,,---,0.00,VWS V14.01,2013-12-08 08:42:00,
2013-12-08 03:47:00,43.1,36.1,30.42,ESE,116,0.0,4.0,76,0.00,,---,0.00,VWS V14.01,2013-12-08 08:47:00,
2013-12-08 03:52:00,43.1,36.1,30.43,SSE,148,0.0,6.0,76,0.00,,---,0.00,VWS V14.01,2013-12-08 08:52:00,
2013-12-08 03:57:00,43.0,36.0,30.43,East,96,0.0,6.0,76,0.00,,---,0.00,VWS V14.01,2013-12-08 08:57:00,
2013-12-08 04:02:00,43.0,36.0,30.43,NNE,18,1.0,4.0,76,0.00,,---,0.00,VWS V14.01,2013-12-08 09:02:00,
2013-12-08 04:07:00,43.0,36.0,30.42,NNE,16,1.0,4.0,76,0.00,,---,0.00,VWS V14.01,2013-12-08 09:07:00,
2013-12-08 04:12:00,43.0,36.3,30.43,NNE,16,0.0,4.0,77,0.00,,---,0.00,VWS V14.01,2013-12-08 09:12:00,
2013-12-08 04:17:00,42.9,36.2,30.43,East,82,0.0,7.0,77,0.00,,---,0.00,VWS V14.01,2013-12-08 09:17:00,
2013-12-08 04:22:00,42.9,36.2,30.43,ESE,103,2.0,7.0,77,0.00,,---,0.00,VWS V14.01,2013-12-08 09:22:00,
2013-12-08 04:27:00,42.8,35.8,30.42,NW,319,2.0,7.0,76,0.00,,---,0.00,VWS V14.01,2013-12-08 09:27:00,
2013-12-08 04:32:00,42.7,35.3,30.42,ENE,71,0.0,4.0,75,0.00,,---,0.00,VWS V14.01,2013-12-08 09:32:00,
2013-12-08 04:37:00,42.7,35.3,30.42,NE,39,1.0,6.0,75,0.00,,---,0.00,VWS V14.01,2013-12-08 09:37:00,
2013-12-08 04:42:00,42.6,35.2,30.42,NNE,17,2.0,6.0,75,0.00,,---,0.00,VWS V14.01,2013-12-08 09:42:00,
2013-12-08 04:47:00,42.6,34.9,30.42,North,355,1.0,9.0,74,0.00,,---,0.00,VWS V14.01,2013-12-08 09:47:00,
2013-12-08 04:52:00,42.4,34.4,30.42,ESE,116,3.0,9.0,73,0.01,,---,0.01,VWS V14.01,2013-12-08 09:52:00,
2013-12-08 04:57:00,42.3,35.0,30.42,SE,136,3.0,9.0,75,0.01,,---,0.01,VWS V14.01,2013-12-08 09:57:00,
2013-12-08 05:03:00,42.2,34.9,30.43,NNE,20,1.0,3.0,75,0.01,,---,0.01,VWS V14.01,2013-12-08 10:03:00,
2013-12-08 05:08:00,42.2,34.9,30.42,NNE,17,2.0,5.0,75,0.01,,---,0.01,VWS V14.01,2013-12-08 10:08:00,
2013-12-08 05:13:00,42.1,34.8,30.42,ESE,111,3.0,9.0,75,0.01,,---,0.01,VWS V14.01,2013-12-08 10:13:00,
2013-12-08 05:18:00,42.0,34.7,30.42,NNW,337,1.0,7.0,75,0.01,,---,0.01,VWS V14.01,2013-12-08 10:18:00,
2013-12-08 05:23:00,41.9,34.6,30.43,SE,125,1.0,7.0,75,0.01,,---,0.01,VWS V14.01,2013-12-08 10:23:00,
2013-12-08 05:28:00,41.8,34.5,30.43,NNE,27,2.0,8.0,75,0.01,,---,0.01,VWS V14.01,2013-12-08 10:28:00,
2013-12-08 05:33:00,41.7,34.4,30.43,NE,48,1.0,4.0,75,0.01,,---,0.01,VWS V14.01,2013-12-08 10:33:00,
2013-12-08 05:38:00,41.7,34.4,30.44,East,95,2.0,5.0,75,0.01,,---,0.01,VWS V14.01,2013-12-08 10:38:00,
2013-12-08 05:43:00,41.6,34.3,30.44,SE,128,1.0,8.0,75,0.01,,---,0.01,VWS V14.01,2013-12-08 10:43:00,
2013-12-08 05:48:00,41.5,34.2,30.43,East,86,6.0,9.0,75,0.01,,---,0.01,VWS V14.01,2013-12-08 10:48:00,
2013-12-08 05:53:00,41.4,34.1,30.44,ESE,119,1.0,9.0,75,0.01,,---,0.01,VWS V14.01,2013-12-08 10:53:00,
2013-12-08 05:58:00,41.3,34.3,30.44,North,9,2.0,9.0,76,0.01,,---,0.01,VWS V14.01,2013-12-08 10:58:00,
2013-12-08 06:03:00,41.3,34.3,30.44,ESE,115,4.0,6.0,76,0.00,,---,0.01,VWS V14.01,2013-12-08 11:03:00,
2013-12-08 06:08:00,41.1,34.5,30.44,SSE,164,5.0,7.0,77,0.00,,---,0.01,VWS V14.01,2013-12-08 11:08:00,
2013-12-08 06:13:00,41.0,34.7,30.44,NNE,13,0.0,11.0,78,0.00,,---,0.01,VWS V14.01,2013-12-08 11:13:00,
2013-12-08 06:18:00,40.8,34.5,30.44,NE,36,2.0,4.0,78,0.00,,---,0.01,VWS V14.01,2013-12-08 11:18:00,
2013-12-08 06:23:00,40.7,34.4,30.44,NNW,337,2.0,9.0,78,0.00,,---,0.01,VWS V14.01,2013-12-08 11:23:00,
2013-12-08 06:28:00,40.6,34.6,30.45,North,10,8.0,9.0,79,0.00,,---,0.01,VWS V14.01,2013-12-08 11:28:00,
2013-12-08 06:33:00,40.6,34.6,30.45,NE,42,1.0,2.0,79,0.00,,---,0.01,VWS V14.01,2013-12-08 11:33:00,
2013-12-08 06:38:00,40.5,34.5,30.45,ESE,108,2.0,5.0,79,0.00,,---,0.01,VWS V14.01,2013-12-08 11:38:00,
2013-12-08 06:43:00,40.4,34.7,30.45,East,100,6.0,9.0,80,0.00,,---,0.01,VWS V14.01,2013-12-08 11:43:00,
2013-12-08 06:48:00,40.3,34.6,30.45,SE,144,1.0,8.0,80,0.00,,---,0.01,VWS V14.01,2013-12-08 11:48:00,
2013-12-08 06:53:00,40.2,34.8,30.45,WNW,290,2.0,8.0,81,0.00,,---,0.01,VWS V14.01,2013-12-08 11:53:00,
2013-12-08 06:59:00,40.1,34.8,30.46,NE,42,0.0,8.0,81,0.00,,---,0.01,VWS V14.01,2013-12-08 11:59:00,
2013-12-08 07:04:00,40.1,34.8,30.46,NNE,32,2.0,6.0,81,0.00,,---,0.01,VWS V14.01,2013-12-08 12:04:00,
2013-12-08 07:09:00,40.0,35.0,30.45,ESE,119,8.0,8.0,82,0.00,,---,0.01,VWS V14.01,2013-12-08 12:09:00,
2013-12-08 07:14:00,39.9,34.9,30.45,SE,142,2.0,8.0,82,0.00,,---,0.01,VWS V14.01,2013-12-08 12:14:00,
2013-12-08 07:19:00,39.8,35.1,30.45,NE,41,0.0,7.0,83,0.00,,---,0.01,VWS V14.01,2013-12-08 12:19:00,
2013-12-08 07:24:00,39.7,35.0,30.46,SE,128,1.0,7.0,83,0.00,,---,0.01,VWS V14.01,2013-12-08 12:24:00,
2013-12-08 07:29:00,39.7,35.3,30.45,ESE,109,5.0,7.0,84,0.00,,---,0.01,VWS V14.01,2013-12-08 12:29:00,
2013-12-08 07:34:00,39.5,35.4,30.45,NNE,30,4.0,8.0,85,0.00,,---,0.01,VWS V14.01,2013-12-08 12:34:00,
2013-12-08 07:39:00,39.3,35.5,30.46,ENE,75,0.0,8.0,86,0.01,,---,0.02,VWS V14.01,2013-12-08 12:39:00,
2013-12-08 07:44:00,39.2,35.4,30.46,NNE,24,2.0,8.0,86,0.01,,---,0.02,VWS V14.01,2013-12-08 12:44:00,
2013-12-08 07:49:00,39.1,35.6,30.46,ESE,122,2.0,4.0,87,0.01,,---,0.02,VWS V14.01,2013-12-08 12:49:00,
2013-12-08 07:54:00,38.9,35.4,30.47,ESE,121,3.0,5.0,87,0.01,,---,0.02,VWS V14.01,2013-12-08 12:54:00,
2013-12-08 07:59:00,38.8,35.6,30.47,NE,55,2.0,5.0,88,0.01,,---,0.02,VWS V14.01,2013-12-08 12:59:00,
2013-12-08 08:04:00,38.6,35.4,30.47,NNE,12,2.0,3.0,88,0.01,,---,0.02,VWS V14.01,2013-12-08 13:04:00,
2013-12-08 08:09:00,38.5,35.5,30.47,ESE,119,2.0,5.0,89,0.01,,---,0.02,VWS V14.01,2013-12-08 13:09:00,
2013-12-08 08:14:00,38.3,35.3,30.46,SE,127,0.0,5.0,89,0.02,,---,0.03,VWS V14.01,2013-12-08 13:14:00,
2013-12-08 08:19:00,38.2,35.5,30.46,East,94,1.0,5.0,90,0.02,,---,0.03,VWS V14.01,2013-12-08 13:19:00,
2013-12-08 08:24:00,38.2,35.5,30.46,East,101,0.0,5.0,90,0.02,,---,0.03,VWS V14.01,2013-12-08 13:24:00,
2013-12-08 08:29:00,38.0,35.3,30.46,ENE,78,3.0,9.0,90,0.02,,---,0.03,VWS V14.01,2013-12-08 13:29:00,
2013-12-08 08:34:00,38.0,35.3,30.45,SE,129,2.0,4.0,90,0.02,,---,0.03,VWS V14.01,2013-12-08 13:34:00,
2013-12-08 08:39:00,37.9,35.5,30.46,ESE,113,0.0,7.0,91,0.02,,---,0.03,VWS V14.01,2013-12-08 13:39:00,
2013-12-08 08:44:00,37.9,35.5,30.46,East,92,2.0,7.0,91,0.02,,---,0.03,VWS V14.01,2013-12-08 13:44:00,
2013-12-08 08:49:00,37.8,35.4,30.47,NNE,26,1.0,5.0,91,0.01,,---,0.03,VWS V14.01,2013-12-08 13:49:00,
2013-12-08 08:55:00,37.8,35.4,30.47,ESE,109,2.0,5.0,91,0.01,,---,0.03,VWS V14.01,2013-12-08 13:55:00,
2013-12-08 09:00:00,37.8,35.4,30.48,ESE,107,2.0,5.0,91,0.01,,---,0.03,VWS V14.01,2013-12-08 14:00:00,
2013-12-08 09:05:00,37.7,35.3,30.48,NE,44,1.0,6.0,91,0.01,,---,0.03,VWS V14.01,2013-12-08 14:05:00,
2013-12-08 09:10:00,37.7,35.3,30.48,ENE,78,0.0,6.0,91,0.01,,---,0.03,VWS V14.01,2013-12-08 14:10:00,
2013-12-08 09:15:00,37.6,35.2,30.48,East,88,0.0,7.0,91,0.01,,---,0.03,VWS V14.01,2013-12-08 14:15:00,
2013-12-08 09:20:00,37.5,35.1,30.48,North,360,3.0,5.0,91,0.00,,---,0.03,VWS V14.01,2013-12-08 14:20:00,
2013-12-08 09:25:00,37.5,35.1,30.49,NNE,32,3.0,6.0,91,0.00,,---,0.03,VWS V14.01,2013-12-08 14:25:00,
2013-12-08 09:30:00,37.5,35.1,30.49,ENE,73,1.0,6.0,91,0.00,,---,0.03,VWS V14.01,2013-12-08 14:30:00,
2013-12-08 09:35:00,37.5,35.4,30.48,ESE,116,2.0,3.0,92,0.00,,---,0.03,VWS V14.01,2013-12-08 14:35:00,
2013-12-08 09:40:00,37.6,35.5,30.47,ESE,109,2.0,7.0,92,0.00,,---,0.03,VWS V14.01,2013-12-08 14:40:00,
2013-12-08 09:45:00,37.5,35.4,30.47,ESE,105,0.0,7.0,92,0.00,,---,0.03,VWS V14.01,2013-12-08 14:45:00,
2013-12-08 09:50:00,37.7,35.6,30.47,NNE,18,2.0,5.0,92,0.00,,---,0.03,VWS V14.01,2013-12-08 14:50:00,
2013-12-08 09:55:00,37.7,35.6,30.48,ENE,76,0.0,5.0,92,0.00,,---,0.03,VWS V14.01,2013-12-08 14:55:00,
2013-12-08 10:00:00,37.7,35.6,30.48,SE,130,0.0,1.0,92,0.00,,---,0.03,VWS V14.01,2013-12-08 15:00:00,
2013-12-08 10:05:00,37.7,35.6,30.47,NNE,24,0.0,7.0,92,0.00,,---,0.03,VWS V14.01,2013-12-08 15:05:00,
2013-12-08 10:10:00,37.5,35.4,30.47,East,95,2.0,7.0,92,0.00,,---,0.03,VWS V14.01,2013-12-08 15:10:00,
2013-12-08 10:15:00,37.5,35.4,30.46,ESE,107,2.0,3.0,92,0.00,,---,0.03,VWS V14.01,2013-12-08 15:15:00,
2013-12-08 10:20:00,37.5,35.4,30.46,SE,128,1.0,8.0,92,0.00,,---,0.03,VWS V14.01,2013-12-08 15:20:00,
2013-12-08 10:25:00,37.6,35.5,30.45,East,98,0.0,10.0,92,0.00,,---,0.03,VWS V14.01,2013-12-08 15:25:00,
2013-12-08 10:30:00,37.6,35.5,30.46,East,80,1.0,1.0,92,0.00,,---,0.03,VWS V14.01,2013-12-08 15:30:00,
2013-12-08 10:35:00,37.6,35.5,30.46,SE,139,5.0,5.0,92,0.00,,---,0.03,VWS V14.01,2013-12-08 15:35:00,
2013-12-08 10:41:00,37.5,35.1,30.45,ESE,115,1.0,9.0,91,0.00,,---,0.03,VWS V14.01,2013-12-08 15:41:00,
2013-12-08 10:46:00,37.5,35.1,30.45,East,96,3.0,4.0,91,0.00,,---,0.03,VWS V14.01,2013-12-08 15:46:00,
2013-12-08 10:51:00,37.5,35.1,30.46,NE,49,0.0,8.0,91,0.00,,---,0.03,VWS V14.01,2013-12-08 15:51:00,
2013-12-08 10:56:00,37.4,35.0,30.46,North,360,1.0,8.0,91,0.00,,---,0.03,VWS V14.01,2013-12-08 15:56:00,
2013-12-08 11:01:00,37.4,35.0,30.47,NE,44,0.0,1.0,91,0.00,,---,0.03,VWS V14.01,2013-12-08 16:01:00,
2013-12-08 11:06:00,37.4,35.0,30.47,NNE,22,2.0,5.0,91,0.00,,---,0.03,VWS V14.01,2013-12-08 16:06:00,
2013-12-08 11:11:00,37.3,34.9,30.47,North,5,1.0,6.0,91,0.00,,---,0.03,VWS V14.01,2013-12-08 16:11:00,
2013-12-08 11:16:00,37.3,34.9,30.47,ESE,105,2.0,7.0,91,0.00,,---,0.03,VWS V14.01,2013-12-08 16:16:00,
2013-12-08 11:21:00,37.1,34.7,30.47,NNE,12,1.0,7.0,91,0.00,,---,0.03,VWS V14.01,2013-12-08 16:21:00,
2013-12-08 11:26:00,37.1,34.7,30.47,North,5,2.0,7.0,91,0.00,,---,0.03,VWS V14.01,2013-12-08 16:26:00,
2013-12-08 11:31:00,37.1,34.7,30.46,ENE,70,0.0,4.0,91,0.00,,---,0.03,VWS V14.01,2013-12-08 16:31:00,
2013-12-08 11:36:00,37.2,34.8,30.46,ENE,77,2.0,8.0,91,0.00,,---,0.03,VWS V14.01,2013-12-08 16:36:00,
2013-12-08 11:41:00,37.2,34.8,30.46,NE,36,0.0,8.0,91,0.00,,---,0.03,VWS V14.01,2013-12-08 16:41:00,
2013-12-08 11:46:00,37.3,35.2,30.46,NNE,24,0.0,1.0,92,0.00,,---,0.03,VWS V14.01,2013-12-08 16:46:00,
2013-12-08 11:51:00,37.3,35.2,30.45,NE,56,0.0,7.0,92,0.00,,---,0.03,VWS V14.01,2013-12-08 16:51:00,
2013-12-08 11:56:00,37.4,35.3,30.45,ENE,71,1.0,7.0,92,0.00,,---,0.03,VWS V14.01,2013-12-08 16:56:00,
2013-12-08 12:01:00,37.3,35.2,30.45,ENE,70,2.0,3.0,92,0.01,,---,0.04,VWS V14.01,2013-12-08 17:01:00,
2013-12-08 12:06:00,37.3,35.2,30.45,ENE,63,1.0,3.0,92,0.01,,---,0.04,VWS V14.01,2013-12-08 17:06:00,
2013-12-08 12:11:00,37.3,35.2,30.45,NNE,13,0.0,3.0,92,0.01,,---,0.04,VWS V14.01,2013-12-08 17:11:00,
2013-12-08 12:17:00,37.4,35.3,30.45,NNE,22,0.0,3.0,92,0.02,,---,0.05,VWS V14.01,2013-12-08 17:17:00,
2013-12-08 12:22:00,37.4,35.3,30.45,North,360,3.0,3.0,92,0.02,,---,0.05,VWS V14.01,2013-12-08 17:22:00,
2013-12-08 12:27:00,37.4,35.3,30.44,North,5,0.0,4.0,92,0.02,,---,0.05,VWS V14.01,2013-12-08 17:27:00,
2013-12-08 12:32:00,37.4,35.3,30.45,North,5,5.0,6.0,92,0.02,,---,0.05,VWS V14.01,2013-12-08 17:32:00,
2013-12-08 12:37:00,37.3,35.2,30.45,NNW,346,2.0,6.0,92,0.03,,---,0.06,VWS V14.01,2013-12-08 17:37:00,
2013-12-08 12:42:00,37.3,35.2,30.45,NE,42,1.0,6.0,92,0.03,,---,0.06,VWS V14.01,2013-12-08 17:42:00,
2013-12-08 12:47:00,37.2,35.1,30.45,NNE,28,3.0,5.0,92,0.03,,---,0.06,VWS V14.01,2013-12-08 17:47:00,
2013-12-08 12:52:00,37.2,35.1,30.44,NE,46,5.0,7.0,92,0.04,,---,0.07,VWS V14.01,2013-12-08 17:52:00,
2013-12-08 12:57:00,37.1,35.0,30.45,NNE,28,2.0,7.0,92,0.04,,---,0.07,VWS V14.01,2013-12-08 17:57:00,
2013-12-08 13:02:00,37.1,35.0,30.44,North,10,1.0,4.0,92,0.03,,---,0.07,VWS V14.01,2013-12-08 18:02:00,
2013-12-08 13:07:00,37.1,35.0,30.43,NNE,18,0.0,7.0,92,0.03,,---,0.07,VWS V14.01,2013-12-08 18:07:00,
2013-12-08 13:12:00,37.0,34.9,30.42,NNE,26,3.0,7.0,92,0.03,,---,0.07,VWS V14.01,2013-12-08 18:12:00,
2013-12-08 13:17:00,37.0,35.2,30.42,ENE,65,3.0,8.0,93,0.03,,---,0.07,VWS V14.01,2013-12-08 18:17:00,
2013-12-08 13:22:00,37.0,35.2,30.42,NE,45,2.0,8.0,93,0.03,,---,0.07,VWS V14.01,2013-12-08 18:22:00,
2013-12-08 13:27:00,37.0,35.2,30.42,NE,55,1.0,8.0,93,0.03,,---,0.07,VWS V14.01,2013-12-08 18:27:00,
2013-12-08 13:32:00,37.1,35.3,30.42,NNE,12,0.0,4.0,93,0.02,,---,0.07,VWS V14.01,2013-12-08 18:32:00,
2013-12-08 13:37:00,37.0,35.2,30.42,NE,42,3.0,4.0,93,0.02,,---,0.07,VWS V14.01,2013-12-08 18:37:00,
2013-12-08 13:42:00,37.0,35.2,30.42,North,11,2.0,5.0,93,0.02,,---,0.07,VWS V14.01,2013-12-08 18:42:00,
2013-12-08 13:47:00,37.0,35.2,30.42,WNW,302,0.0,7.0,93,0.01,,---,0.07,VWS V14.01,2013-12-08 18:47:00,
2013-12-08 13:52:00,36.9,35.1,30.42,NNE,13,5.0,7.0,93,0.01,,---,0.07,VWS V14.01,2013-12-08 18:52:00,
2013-12-08 13:58:00,36.8,35.0,30.41,ESE,107,0.0,7.0,93,0.01,,---,0.07,VWS V14.01,2013-12-08 18:58:00,
2013-12-08 14:03:00,36.8,35.0,30.41,ENE,73,0.0,7.0,93,0.00,,---,0.07,VWS V14.01,2013-12-08 19:03:00,
2013-12-08 14:08:00,36.8,35.0,30.40,North,360,2.0,7.0,93,0.00,,---,0.07,VWS V14.01,2013-12-08 19:08:00,
2013-12-08 14:13:00,36.9,35.1,30.39,ENE,67,0.0,7.0,93,0.00,,---,0.07,VWS V14.01,2013-12-08 19:13:00,
2013-12-08 14:18:00,36.9,35.1,30.40,ENE,59,0.0,4.0,93,0.00,,---,0.07,VWS V14.01,2013-12-08 19:18:00,
2013-12-08 14:23:00,37.1,35.3,30.40,NE,36,1.0,4.0,93,0.00,,---,0.07,VWS V14.01,2013-12-08 19:23:00,
2013-12-08 14:28:00,37.2,35.4,30.40,ENE,67,2.0,7.0,93,0.00,,---,0.07,VWS V14.01,2013-12-08 19:28:00,
2013-12-08 14:33:00,37.3,35.5,30.40,NE,42,1.0,5.0,93,0.00,,---,0.07,VWS V14.01,2013-12-08 19:33:00,
2013-12-08 14:39:00,37.3,35.5,30.40,NE,55,3.0,7.0,93,0.00,,---,0.07,VWS V14.01,2013-12-08 19:39:00,
2013-12-08 14:44:00,37.2,35.4,30.40,ENE,57,0.0,7.0,93,0.00,,---,0.07,VWS V14.01,2013-12-08 19:44:00,
2013-12-08 14:49:00,37.1,35.0,30.39,North,355,5.0,8.0,92,0.00,,---,0.07,VWS V14.01,2013-12-08 19:49:00,
2013-12-08 14:54:00,37.1,35.0,30.39,NE,51,0.0,8.0,92,0.00,,---,0.07,VWS V14.01,2013-12-08 19:54:00,
2013-12-08 14:59:00,37.0,34.9,30.40,North,5,2.0,8.0,92,0.00,,---,0.07,VWS V14.01,2013-12-08 19:59:00,
2013-12-08 15:04:00,36.9,34.8,30.39,North,355,6.0,8.0,92,0.00,,---,0.07,VWS V14.01,2013-12-08 20:04:00,
2013-12-08 15:09:00,36.6,34.5,30.39,NNE,21,0.0,8.0,92,0.00,,---,0.07,VWS V14.01,2013-12-08 20:09:00,
2013-12-08 15:14:00,36.6,34.5,30.39,WNW,297,1.0,8.0,92,0.00,,---,0.07,VWS V14.01,2013-12-08 20:14:00,
2013-12-08 15:19:00,36.5,34.4,30.39,East,82,0.0,4.0,92,0.00,,---,0.07,VWS V14.01,2013-12-08 20:19:00,
2013-12-08 15:24:00,36.4,34.3,30.40,NNE,28,0.0,7.0,92,0.00,,---,0.07,VWS V14.01,2013-12-08 20:24:00,
2013-12-08 15:29:00,36.3,34.2,30.40,North,360,2.0,8.0,92,0.00,,---,0.07,VWS V14.01,2013-12-08 20:29:00,
2013-12-08 15:34:00,36.2,34.1,30.40,NNE,15,2.0,5.0,92,0.00,,---,0.07,VWS V14.01,2013-12-08 20:34:00,
2013-12-08 15:39:00,36.2,34.1,30.39,NE,42,0.0,6.0,92,0.00,,---,0.07,VWS V14.01,2013-12-08 20:39:00,
2013-12-08 15:44:00,36.1,34.0,30.39,North,5,3.0,6.0,92,0.00,,---,0.07,VWS V14.01,2013-12-08 20:44:00,
2013-12-08 15:49:00,36.1,34.0,30.39,NNE,17,1.0,4.0,92,0.00,,---,0.07,VWS V14.01,2013-12-08 20:49:00,
2013-12-08 15:54:00,36.1,34.0,30.39,NNE,32,5.0,7.0,92,0.00,,---,0.07,VWS V14.01,2013-12-08 20:54:00,
2013-12-08 15:59:00,36.1,34.0,30.39,North,360,0.0,7.0,92,0.00,,---,0.07,VWS V14.01,2013-12-08 20:59:00,
2013-12-08 16:04:00,36.1,34.3,30.40,NNE,24,0.0,6.0,93,0.00,,---,0.07,VWS V14.01,2013-12-08 21:04:00,
2013-12-08 16:09:00,36.0,33.9,30.40,East,80,0.0,6.0,92,0.00,,---,0.07,VWS V14.01,2013-12-08 21:09:00,
2013-12-08 16:14:00,35.9,33.8,30.39,ENE,67,3.0,6.0,92,0.00,,---,0.07,VWS V14.01,2013-12-08 21:14:00,
2013-12-08 16:19:00,35.9,33.8,30.40,NE,53,4.0,6.0,92,0.00,,---,0.07,VWS V14.01,2013-12-08 21:19:00,
2013-12-08 16:25:00,35.8,33.7,30.40,East,84,0.0,7.0,92,0.00,,---,0.07,VWS V14.01,2013-12-08 21:25:00,
2013-12-08 16:30:00,35.8,33.7,30.40,SE,128,0.0,7.0,92,0.00,,---,0.07,VWS V14.01,2013-12-08 21:30:00,
2013-12-08 16:35:00,35.7,33.9,30.41,NE,46,0.0,4.0,93,0.00,,---,0.07,VWS V14.01,2013-12-08 21:35:00,
2013-12-08 16:40:00,35.7,33.9,30.41,NE,55,0.0,4.0,93,0.00,,---,0.07,VWS V14.01,2013-12-08 21:40:00,
2013-12-08 16:45:00,35.7,33.9,30.41,ENE,74,0.0,4.0,93,0.00,,---,0.07,VWS V14.01,2013-12-08 21:45:00,
2013-12-08 16:50:00,35.7,33.9,30.40,NE,44,3.0,6.0,93,0.00,,---,0.07,VWS V14.01,2013-12-08 21:50:00,
2013-12-08 16:55:00,35.6,33.8,30.41,ENE,63,0.0,6.0,93,0.00,,---,0.07,VWS V14.01,2013-12-08 21:55:00,
2013-12-08 17:00:00,35.6,33.8,30.41,East,94,0.0,6.0,93,0.00,,---,0.07,VWS V14.01,2013-12-08 22:00:00,
2013-12-08 17:05:00,35.5,33.7,30.41,NE,34,3.0,3.0,93,0.00,,---,0.07,VWS V14.01,2013-12-08 22:05:00,
2013-12-08 17:10:00,35.5,33.7,30.41,NE,51,1.0,7.0,93,0.00,,---,0.07,VWS V14.01,2013-12-08 22:10:00,
2013-12-08 17:15:00,35.4,33.6,30.41,NE,55,2.0,7.0,93,0.00,,---,0.07,VWS V14.01,2013-12-08 22:15:00,
2013-12-08 17:20:00,35.4,33.6,30.40,ESE,107,0.0,5.0,93,0.00,,---,0.07,VWS V14.01,2013-12-08 22:20:00,
2013-12-08 17:25:00,35.3,33.5,30.41,ESE,102,4.0,5.0,93,0.00,,---,0.07,VWS V14.01,2013-12-08 22:25:00,
2013-12-08 17:30:00,35.3,33.5,30.40,North,5,0.0,1.0,93,0.00,,---,0.07,VWS V14.01,2013-12-08 22:30:00,
2013-12-08 17:35:00,35.3,33.5,30.40,NNE,26,0.0,4.0,93,0.00,,---,0.07,VWS V14.01,2013-12-08 22:35:00,
2013-12-08 17:40:00,35.2,33.4,30.40,ENE,65,0.0,4.0,93,0.00,,---,0.07,VWS V14.01,2013-12-08 22:40:00,
2013-12-08 17:45:00,35.2,33.4,30.40,East,88,2.0,2.0,93,0.00,,---,0.07,VWS V14.01,2013-12-08 22:45:00,
2013-12-08 17:50:00,35.1,33.3,30.39,ENE,67,0.0,8.0,93,0.00,,---,0.07,VWS V14.01,2013-12-08 22:50:00,
2013-12-08 17:55:00,35.0,33.2,30.38,ESE,111,0.0,8.0,93,0.00,,---,0.07,VWS V14.01,2013-12-08 22:55:00,
2013-12-08 18:00:00,35.1,33.3,30.39,ESE,111,2.0,2.0,93,0.00,,---,0.07,VWS V14.01,2013-12-08 23:00:00,
2013-12-08 18:05:00,35.0,33.2,30.39,NNE,27,1.0,4.0,93,0.00,,---,0.07,VWS V14.01,2013-12-08 23:05:00,
2013-12-08 18:11:00,35.0,33.2,30.39,ENE,71,0.0,5.0,93,0.00,,---,0.07,VWS V14.01,2013-12-08 23:11:00,
2013-12-08 18:16:00,35.0,33.5,30.39,North,5,0.0,2.0,94,0.00,,---,0.07,VWS V14.01,2013-12-08 23:16:00,
2013-12-08 18:21:00,34.9,33.3,30.39,NNE,32,2.0,5.0,94,0.00,,---,0.07,VWS V14.01,2013-12-08 23:21:00,
2013-12-08 18:26:00,34.9,33.3,30.39,ENE,78,0.0,5.0,94,0.00,,---,0.07,VWS V14.01,2013-12-08 23:26:00,
2013-12-08 18:31:00,34.8,33.2,30.38,NNE,19,3.0,3.0,94,0.00,,---,0.07,VWS V14.01,2013-12-08 23:31:00,
2013-12-08 18:36:00,34.8,33.0,30.39,North,11,3.0,6.0,93,0.00,,---,0.07,VWS V14.01,2013-12-08 23:36:00,
2013-12-08 18:41:00,34.7,33.2,30.38,NNE,22,2.0,6.0,94,0.00,,---,0.07,VWS V14.01,2013-12-08 23:41:00,
2013-12-08 18:46:00,34.7,33.2,30.39,East,82,2.0,2.0,94,0.00,,---,0.07,VWS V14.01,2013-12-08 23:46:00,
2013-12-08 18:51:00,34.7,33.2,30.39,SE,126,1.0,6.0,94,0.00,,---,0.07,VWS V14.01,2013-12-08 23:51:00,
2013-12-08 18:56:00,34.7,33.2,30.40,NE,42,1.0,6.0,94,0.00,,---,0.07,VWS V14.01,2013-12-08 23:56:00,
2013-12-08 19:01:00,34.7,33.2,30.40,NE,41,0.0,0.0,94,0.00,,---,0.07,VWS V14.01,2013-12-09 00:01:00,
2013-12-08 19:06:00,34.7,33.2,30.40,NNE,22,2.0,4.0,94,0.00,,---,0.07,VWS V14.01,2013-12-09 00:06:00,
2013-12-08 19:11:00,34.7,33.2,30.41,NE,45,0.0,4.0,94,0.00,,---,0.07,VWS V14.01,2013-12-09 00:11:00,
2013-12-08 19:16:00,34.6,33.0,30.41,NNE,21,3.0,3.0,94,0.00,,---,0.07,VWS V14.01,2013-12-09 00:16:00,
2013-12-08 19:21:00,34.7,33.2,30.41,ENE,77,1.0,5.0,94,0.00,,---,0.07,VWS V14.01,2013-12-09 00:21:00,
2013-12-08 19:26:00,34.7,33.2,30.41,East,87,0.0,5.0,94,0.00,,---,0.07,VWS V14.01,2013-12-09 00:26:00,
2013-12-08 19:31:00,34.7,33.2,30.42,ESE,105,2.0,2.0,94,0.00,,---,0.07,VWS V14.01,2013-12-09 00:31:00,
2013-12-08 19:36:00,34.7,33.2,30.42,ESE,119,0.0,4.0,94,0.00,,---,0.07,VWS V14.01,2013-12-09 00:36:00,
2013-12-08 19:41:00,34.7,33.2,30.42,NNE,22,0.0,4.0,94,0.00,,---,0.07,VWS V14.01,2013-12-09 00:41:00,
2013-12-08 19:46:00,34.7,33.2,30.41,North,355,0.0,1.0,94,0.00,,---,0.07,VWS V14.01,2013-12-09 00:46:00,
2013-12-08 19:51:00,34.8,33.2,30.41,NE,40,0.0,3.0,94,0.00,,---,0.07,VWS V14.01,2013-12-09 00:51:00,
2013-12-08 19:56:00,34.8,33.2,30.41,East,81,0.0,5.0,94,0.01,,---,0.08,VWS V14.01,2013-12-09 00:56:00,
2013-12-08 20:02:00,34.8,33.2,30.41,East,81,0.0,0.0,94,0.01,,---,0.08,VWS V14.01,2013-12-09 01:02:00,
2013-12-08 20:07:00,34.8,33.2,30.40,East,81,0.0,2.0,94,0.01,,---,0.08,VWS V14.01,2013-12-09 01:07:00,
2013-12-08 20:12:00,34.9,33.3,30.41,East,80,0.0,2.0,94,0.01,,---,0.08,VWS V14.01,2013-12-09 01:12:00,
2013-12-08 20:17:00,34.9,33.3,30.41,NNE,26,2.0,4.0,94,0.01,,---,0.08,VWS V14.01,2013-12-09 01:17:00,
2013-12-08 20:22:00,34.9,33.3,30.41,North,360,1.0,5.0,94,0.01,,---,0.08,VWS V14.01,2013-12-09 01:22:00,
2013-12-08 20:27:00,34.9,33.3,30.41,North,360,1.0,5.0,94,0.01,,---,0.08,VWS V14.01,2013-12-09 01:27:00,
2013-12-08 20:32:00,34.9,33.3,30.41,ENE,63,0.0,2.0,94,0.01,,---,0.08,VWS V14.01,2013-12-09 01:32:00,
2013-12-08 20:37:00,35.0,33.5,30.41,NE,36,0.0,3.0,94,0.02,,---,0.09,VWS V14.01,2013-12-09 01:37:00,
2013-12-08 20:42:00,34.9,33.3,30.41,ENE,67,0.0,3.0,94,0.02,,---,0.09,VWS V14.01,2013-12-09 01:42:00,
2013-12-08 20:47:00,34.9,33.3,30.41,NE,54,1.0,5.0,94,0.02,,---,0.09,VWS V14.01,2013-12-09 01:47:00,
2013-12-08 20:52:00,34.9,33.3,30.41,NE,49,0.0,5.0,94,0.02,,---,0.09,VWS V14.01,2013-12-09 01:52:00,
2013-12-08 20:57:00,34.9,33.3,30.41,NE,34,0.0,5.0,94,0.02,,---,0.09,VWS V14.01,2013-12-09 01:57:00,
2013-12-08 21:02:00,34.9,33.3,30.40,East,94,0.0,2.0,94,0.01,,---,0.09,VWS V14.01,2013-12-09 02:02:00,
2013-12-08 21:07:00,34.8,33.2,30.40,East,82,0.0,2.0,94,0.01,,---,0.09,VWS V14.01,2013-12-09 02:07:00,
2013-12-08 21:12:00,34.8,33.2,30.40,SE,139,0.0,4.0,94,0.01,,---,0.09,VWS V14.01,2013-12-09 02:12:00,
2013-12-08 21:17:00,34.8,33.2,30.39,East,94,0.0,3.0,94,0.01,,---,0.09,VWS V14.01,2013-12-09 02:17:00,
2013-12-08 21:22:00,34.8,33.2,30.38,NNE,21,2.0,4.0,94,0.01,,---,0.09,VWS V14.01,2013-12-09 02:22:00,
2013-12-08 21:27:00,34.8,33.2,30.39,North,355,2.0,4.0,94,0.01,,---,0.09,VWS V14.01,2013-12-09 02:27:00,
2013-12-08 21:32:00,34.7,33.2,30.38,ENE,77,0.0,2.0,94,0.01,,---,0.09,VWS V14.01,2013-12-09 02:32:00,
2013-12-08 21:37:00,34.7,33.2,30.40,North,5,1.0,3.0,94,0.01,,---,0.09,VWS V14.01,2013-12-09 02:37:00,
2013-12-08 21:43:00,34.7,33.2,30.40,North,5,1.0,3.0,94,0.01,,---,0.09,VWS V14.01,2013-12-09 02:43:00,
2013-12-08 21:48:00,34.7,33.2,30.40,NNE,15,0.0,1.0,94,0.00,,---,0.09,VWS V14.01,2013-12-09 02:48:00,
2013-12-08 21:53:00,34.7,33.2,30.40,NNE,14,0.0,3.0,94,0.00,,---,0.09,VWS V14.01,2013-12-09 02:53:00,
2013-12-08 21:58:00,34.7,33.2,30.41,NNE,13,1.0,3.0,94,0.00,,---,0.09,VWS V14.01,2013-12-09 02:58:00,
2013-12-08 22:03:00,34.7,33.2,30.40,NNE,15,0.0,2.0,94,0.00,,---,0.09,VWS V14.01,2013-12-09 03:03:00,
2013-12-08 22:08:00,34.7,33.2,30.40,NNE,19,0.0,2.0,94,0.00,,---,0.09,VWS V14.01,2013-12-09 03:08:00,
2013-12-08 22:13:00,34.7,33.2,30.40,NNE,18,0.0,2.0,94,0.00,,---,0.09,VWS V14.01,2013-12-09 03:13:00,
2013-12-08 22:18:00,34.8,33.2,30.40,NNE,18,1.0,2.0,94,0.00,,---,0.09,VWS V14.01,2013-12-09 03:18:00,
2013-12-08 22:23:00,34.8,33.5,30.40,North,11,0.0,2.0,95,0.00,,---,0.09,VWS V14.01,2013-12-09 03:23:00,
2013-12-08 22:28:00,34.8,33.5,30.39,ESE,105,2.0,2.0,95,0.00,,---,0.09,VWS V14.01,2013-12-09 03:28:00,
2013-12-08 22:33:00,34.8,33.5,30.39,ENE,74,0.0,2.0,95,0.00,,---,0.09,VWS V14.01,2013-12-09 03:33:00,
2013-12-08 22:38:00,34.8,33.5,30.38,East,88,2.0,2.0,95,0.00,,---,0.09,VWS V14.01,2013-12-09 03:38:00,
2013-12-08 22:43:00,34.8,33.5,30.38,ESE,106,0.0,3.0,95,0.00,,---,0.09,VWS V14.01,2013-12-09 03:43:00,
2013-12-08 22:48:00,34.7,33.4,30.38,NE,34,0.0,2.0,95,0.00,,---,0.09,VWS V14.01,2013-12-09 03:48:00,
2013-12-08 22:53:00,34.8,33.5,30.38,East,80,0.0,2.0,95,0.00,,---,0.09,VWS V14.01,2013-12-09 03:53:00,
2013-12-08 22:58:00,34.8,33.2,30.38,NE,34,2.0,3.0,94,0.00,,---,0.09,VWS V14.01,2013-12-09 03:58:00,
2013-12-08 23:03:00,34.8,33.5,30.38,East,94,0.0,3.0,95,0.00,,---,0.09,VWS V14.01,2013-12-09 04:03:00,
2013-12-08 23:08:00,34.7,33.2,30.38,NNE,24,0.0,3.0,94,0.00,,---,0.09,VWS V14.01,2013-12-09 04:08:00,
2013-12-08 23:13:00,34.8,33.5,30.38,NNE,24,0.0,3.0,95,0.00,,---,0.09,VWS V14.01,2013-12-09 04:13:00,
2013-12-08 23:18:00,34.7,33.2,30.38,NNE,23,0.0,3.0,94,0.00,,---,0.09,VWS V14.01,2013-12-09 04:18:00,
2013-12-08 23:23:00,34.7,33.2,30.38,NNW,342,1.0,3.0,94,0.00,,---,0.09,VWS V14.01,2013-12-09 04:23:00,
2013-12-08 23:28:00,34.8,33.5,30.37,NE,48,0.0,3.0,95,0.00,,---,0.09,VWS V14.01,2013-12-09 04:28:00,
2013-12-08 23:33:00,34.8,33.5,30.36,NE,54,0.0,1.0,95,0.00,,---,0.09,VWS V14.01,2013-12-09 04:33:00,
2013-12-08 23:39:00,34.8,33.5,30.36,ESE,113,2.0,3.0,95,0.00,,---,0.09,VWS V14.01,2013-12-09 04:39:00,
2013-12-08 23:44:00,34.8,33.5,30.36,ESE,113,0.0,3.0,95,0.00,,---,0.09,VWS V14.01,2013-12-09 04:44:00,
2013-12-08 23:49:00,34.8,33.5,30.36,ESE,113,0.0,1.0,95,0.00,,---,0.09,VWS V14.01,2013-12-09 04:49:00,
2013-12-08 23:54:00,34.8,33.5,30.35,NNE,18,0.0,2.0,95,0.01,,---,0.10,VWS V14.01,2013-12-09 04:54:00,
2013-12-08 23:59:00,34.8,33.5,30.35,ENE,76,2.0,2.0,95,0.01,,---,0.10,VWS V14.01,2013-12-09 04:59:00,